GW5979 Weather Reports


time (UTC)temp
F
wind
direction
speed
knots
gust
knots
rain 1hr
in
rain 24hr
in
rain mn
in
humidity
%
barometer
mb
20260906212334 86 163 5.2 11.3 0.00 0.00 0.00 36 1017.6
20260906211834 85 199 5.2 9.6 0.00 0.00 0.00 37 1017.7
20260906211329 86 177 3.5 5.2 0.00 0.00 0.00 37 1017.8
20260906210825 86 175 6.1 9.6 0.00 0.00 0.00 36 1017.7
20260906210324 85 182 3.5 7.8 0.00 0.00 0.00 37 1017.8
20260906205819 85 200 5.2 10.4 0.00 0.00 0.00 37 1017.8
20260906205316 85 207 3.5 8.7 0.00 0.00 0.00 37 1018.0
20260906204811 85 207 11.3 12.2 0.00 0.00 0.00 36 1018.0
20260906204310 86 177 4.3 8.7 0.00 0.00 0.00 37 1018.2
20260906203810 86 241 2.6 7.8 0.00 0.00 0.00 39 1018.0
20260906203305 85 176 7.8 9.6 0.00 0.00 0.00 39 1018.3
20260906202802 86 160 9.6 12.2 0.00 0.00 0.00 38 1018.0
20260906202301 85 183 7.8 13.9 0.00 0.00 0.00 39 1018.3
20260906201756 85 129 4.3 7.8 0.00 0.00 0.00 38 1018.2
20260906201256 86 185 8.7 10.4 0.00 0.00 0.00 38 1018.0
20260906200752 86 187 7.8 12.2 0.00 0.00 0.00 39 1018.3
20260906200247 85 174 7.8 12.2 0.00 0.00 0.00 39 1018.4
20260906195743 85 199 3.5 4.3 0.00 0.00 0.00 38 1018.5
20260906195239 86 191 7.8 9.6 0.00 0.00 0.00 38 1018.4
20260906194735 85 207 7.8 11.3 0.00 0.00 0.00 38 1018.2
20260906194231 86 182 0.9 9.6 0.00 0.00 0.00 38 1018.7
20260906193726 85 171 3.5 6.1 0.00 0.00 0.00 39 1018.5
20260906193225 84 154 1.7 5.2 0.00 0.00 0.00 39 1018.7
20260906192721 84 178 3.5 8.7 0.00 0.00 0.00 39 1018.5
20260906192216 84 233 3.5 8.7 0.00 0.00 0.00 39 1018.8
20260906191715 85 195 6.1 8.7 0.00 0.00 0.00 38 1018.9
20260906191210 84 198 7.8 8.7 0.00 0.00 0.00 38 1018.7
20260906190709 84 210 5.2 8.7 0.00 0.00 0.00 36 1018.9
20260906190204 85 68 4.3 7.8 0.00 0.00 0.00 36 1019.1
20260906185703 85 210 3.5 7.0 0.00 0.00 0.00 37 1019.1
20260906185202 84 200 2.6 3.5 0.00 0.00 0.00 36 1019.4
20260906184657 85 177 4.3 5.2 0.00 0.00 0.00 35 1019.3
20260906184153 84 169 5.2 9.6 0.00 0.00 0.00 36 1019.9
20260906183648 84 174 3.5 7.8 0.00 0.00 0.00 36 1019.4
20260906183144 83 192 3.5 8.7 0.00 0.00 0.00 36 1019.5
20260906182644 83 166 3.5 7.8 0.00 0.00 0.00 37 1019.6
20260906182140 84 153 6.1 8.7 0.00 0.00 0.00 36 1019.9
20260906181635 83 229 2.6 3.5 0.00 0.00 0.00 37 1019.9
20260906181131 83 82 3.5 5.2 0.00 0.00 0.00 37 1020.2
20260906180627 83 180 2.6 6.1 0.00 0.00 0.00 37 1020.1
20260906180126 82 26 1.7 3.5 0.00 0.00 0.00 38 1020.2
20260906175625 82 346 1.7 4.3 0.00 0.00 0.00 38 1020.1
20260906175120 82 183 4.3 6.1 0.00 0.00 0.00 38 1020.4
20260906174618 82 178 3.5 8.7 0.00 0.00 0.00 38 1020.2
20260906174113 81 63 1.7 4.3 0.00 0.00 0.00 39 1020.4
20260906173608 81 180 3.5 6.1 0.00 0.00 0.00 39 1020.5
20260906173104 82 63 3.5 7.8 0.00 0.00 0.00 38 1020.2
20260906172603 84 206 3.5 7.8 0.00 0.00 0.00 37 1020.6
20260906172059 82 252 1.7 3.5 0.00 0.00 0.00 38 1020.5
20260906171559 82 212 0.9 4.3 0.00 0.00 0.00 38 1020.6
20260906171054 82 166 3.5 7.8 0.02 0.00 0.00 38 1020.7
20260906170550 82 111 0.0 6.1 0.02 0.00 0.00 38 1020.6
20260906170049 81 24 1.7 3.5 0.00 0.00 0.00 40 1020.9
20260906165546 80 295 0.0 1.7 0.00 0.00 0.00 43 1021.0
20260906165041 0 0.0 0.0 0.00 0.00 0.00 1020.9
20260906164540 0 0.0 0.0 0.00 0.00 0.00 1020.7
20260906164036 0 0.0 0.0 0.00 0.00 0.00 1020.7
20260906163531 0 0.0 0.0 0.00 0.00 0.00 1020.9
20260906163027 0 0.0 0.0 0.00 0.00 0.00 1020.6
20260906162524 0 0.0 0.0 0.00 0.00 0.00 1020.9
20260906162019 0 0.0 0.0 0.00 0.00 0.00 1020.7
20260906161514 0 0.0 0.0 0.00 0.00 0.00 1020.6
20260906161013 0 0.0 0.0 0.00 0.00 0.00 1020.6
20260906160512 0 0.0 0.0 0.00 0.00 0.00 1020.7
20260906160011 0 0.0 0.0 0.00 0.00 0.00 1020.7
20260906155509 0 0.0 0.0 0.00 0.00 0.00 1021.0
20260906155005 0 0.0 0.0 0.00 0.00 0.00 1020.5
20260906154501 0 0.0 0.0 0.00 0.00 0.00 1020.5
20260906153959 0 0.0 0.0 0.00 0.00 0.00 1020.5
20260906153457 75 287 1.7 1.7 0.00 0.00 0.00 44 1020.6
20260906152953 75 287 1.7 1.7 0.00 0.00 0.00 44 1020.7
20260906152453 75 287 1.7 1.7 0.00 0.00 0.00 44 1020.7
20260906151952 75 287 1.7 1.7 0.00 0.00 0.00 44 1020.4
20260906151448 75 287 1.7 1.7 0.00 0.00 0.00 44 1020.5
20260906150944 75 287 1.7 1.7 0.00 0.00 0.00 44 1020.5
20260906150439 75 287 1.7 1.7 0.00 0.00 0.00 44 1020.6
20260906145938 75 287 1.7 1.7 0.00 0.00 0.00 44 1020.4
20260906145437 75 287 1.7 1.7 0.00 0.00 0.00 44 1020.6
20260906144933 75 287 1.7 1.7 0.00 0.00 0.00 44 1020.4
20260906144432 75 287 1.7 1.7 0.00 0.00 0.00 44 1020.6
20260906143928 75 287 1.7 1.7 0.00 0.00 0.00 44 1020.4
20260906143424 0 0.0 0.0 0.00 0.00 0.00 1020.4
20260906142920 0 0.0 0.0 0.00 0.00 0.00 1020.1
20260906142419 0 0.0 0.0 0.00 0.00 0.00 1020.2
20260906141914 0 0.0 0.0 0.00 0.00 0.00 1020.2
20260906141413 0 0.0 0.0 0.00 0.00 0.00 1020.0
20260906140908 0 0.0 0.0 0.00 0.00 0.00 1020.2
20260906140402 0 0.0 0.0 0.00 0.00 0.00 1020.1
20260906135900 0 0.0 0.0 0.00 0.00 0.00 1020.1
20260906135354 0 0.0 0.0 0.00 0.00 0.00 1020.0
20260906134850 0 0.0 0.0 0.00 0.00 0.00 1020.1
20260906134345 0 0.0 0.0 0.00 0.00 0.00 1019.9
20260906133841 0 0.0 0.0 0.00 0.00 0.00 1020.0
20260906133336 0 0.0 0.0 0.00 0.00 0.00 1020.1
20260906132832 0 0.0 0.0 0.00 0.00 0.00 1020.0
20260906132326 0 0.0 0.0 0.00 0.00 0.00 1019.9
20260906131822 0 0.0 0.0 0.00 0.00 0.00 1019.8
20260906131317 0 0.0 0.0 0.00 0.00 0.00 1019.5
20260906130814 0 0.0 0.0 0.00 0.00 0.00 1019.6
20260906130312 0 0.0 0.0 0.00 0.00 0.00 1019.6
20260906125811 0 0.0 0.0 0.00 0.00 0.00 1019.6
20260906125306 0 0.0 0.0 0.00 0.00 0.00 1019.8
20260906124759 0 0.0 0.0 0.00 0.00 0.00 1019.5
20260906124255 0 0.0 0.0 0.00 0.00 0.00 1019.8
20260906123753 0 0.0 0.0 0.00 0.00 0.00 1019.6
20260906123249 0 0.0 0.0 0.00 0.00 0.00 1019.8
20260906122748 0 0.0 0.0 0.00 0.00 0.00 1019.8
20260906122243 0 0.0 0.0 0.00 0.00 0.00 1019.5
20260906121740 0 0.0 0.0 0.00 0.00 0.00 1019.4
20260906121236 0 0.0 0.0 0.00 0.00 0.00 1019.6
20260906120731 0 0.0 0.0 0.00 0.00 0.00 1019.8
20260906120228 0 0.0 0.0 0.00 0.00 0.00 1019.6
20260906115723 0 0.0 0.0 0.00 0.00 0.00 1019.6
20260906115223 0 0.0 0.0 0.00 0.00 0.00 1019.9
20260906114722 0 0.0 0.0 0.00 0.00 0.00 1019.3
20260906114218 0 0.0 0.0 0.00 0.00 0.00 1019.6
20260906113713 0 0.0 0.0 0.00 0.00 0.00 1019.3
20260906113213 0 0.0 0.0 0.00 0.00 0.00 1019.4
20260906112712 0 0.0 0.0 0.00 0.00 0.00 1019.5
20260906112209 0 0.0 0.0 0.00 0.00 0.00 1019.4
20260906111708 0 0.0 0.0 0.00 0.00 0.00 1019.3
20260906111203 0 0.0 0.0 0.00 0.00 0.00 1019.3
20260906110658 0 0.0 0.0 0.00 0.00 0.00 1019.1
20260906110153 0 0.0 0.0 0.00 0.00 0.00 1019.3
20260906105647 0 0.0 0.0 0.00 0.00 0.00 1019.3
20260906105144 0 0.0 0.0 0.00 0.00 0.00 1018.9
20260906104643 0 0.0 0.0 0.00 0.00 0.00 1019.1
20260906104142 0 0.0 0.0 0.00 0.00 0.00 1019.0
20260906103640 0 0.0 0.0 0.00 0.00 0.00 1019.1
20260906103136 0 0.0 0.0 0.00 0.00 0.00 1019.1
20260906102632 0 0.0 0.0 0.00 0.00 0.00 1019.5
20260906102131 0 0.0 0.0 0.00 0.00 0.00 1019.3
20260906101631 0 0.0 0.0 0.00 0.00 0.00 1019.3
20260906101131 0 0.0 0.0 0.00 0.00 0.00 1019.3
20260906100627 0 0.0 0.0 0.00 0.00 0.00 1019.4
20260906100122 0 0.0 0.0 0.00 0.00 0.00 1019.3
20260906095621 0 0.0 0.0 0.00 0.00 0.00 1019.5
20260906095117 0 0.0 0.0 0.00 0.00 0.00 1019.8
20260906094616 0 0.0 0.0 0.00 0.00 0.00 1019.6
20260906094112 0 0.0 0.0 0.00 0.00 0.00 1019.8
20260906093609 0 0.0 0.0 0.00 0.00 0.00 1019.6
20260906093109 0 0.0 0.0 0.00 0.00 0.00 1019.6
20260906092609 0 0.0 0.0 0.00 0.00 0.00 1019.8
20260906092104 0 0.0 0.0 0.00 0.00 0.00 1019.8
20260906091600 0 0.0 0.0 0.00 0.00 0.00 1019.4
20260906091057 0 0.0 0.0 0.00 0.00 0.00 1019.6
20260906090556 0 0.0 0.0 0.00 0.00 0.00 1019.4
20260906090051 0 0.0 0.0 0.00 0.00 0.00 1019.6
20260906085550 0 0.0 0.0 0.00 0.00 0.00 1019.5
20260906085050 0 0.0 0.0 0.00 0.00 0.00 1019.4
20260906084545 0 0.0 0.0 0.00 0.00 0.00 1019.4
20260906084043 0 0.0 0.0 0.00 0.00 0.00 1019.3
20260906083539 0 0.0 0.0 0.00 0.00 0.00 1019.1
20260906083039 0 0.0 0.0 0.00 0.00 0.00 1019.1
20260906082534 0 0.0 0.0 0.00 0.00 0.00 1019.1
20260906082030 0 0.0 0.0 0.00 0.00 0.00 1019.5
20260906081525 0 0.0 0.0 0.00 0.00 0.00 1019.3
20260906081022 0 0.0 0.0 0.00 0.00 0.00 1019.4
20260906080518 0 0.0 0.0 0.00 0.00 0.00 1019.3
20260906080014 0 0.0 0.0 0.00 0.00 0.00 1019.4
20260906075513 0 0.0 0.0 0.00 0.00 0.00 1019.4
20260906075008 0 0.0 0.0 0.00 0.00 0.00 1019.6
20260906074503 0 0.0 0.0 0.00 0.00 0.00 1019.4
20260906074001 0 0.0 0.0 0.00 0.00 0.00 1019.6
20260906073456 0 0.0 0.0 0.00 0.00 0.00 1019.5
20260906072952 0 0.0 0.0 0.00 0.00 0.00 1019.8
20260906072447 0 0.0 0.0 0.00 0.00 0.00 1019.8
20260906071943 0 0.0 0.0 0.00 0.00 0.00 1019.9
20260906071439 0 0.0 0.0 0.00 0.00 0.00 1020.0
20260906070935 0 0.0 0.0 0.00 0.00 0.00 1019.6
20260906070430 0 0.0 0.0 0.00 0.00 0.00 1019.6
20260906065926 0 0.0 0.0 0.00 0.00 0.00 1019.9
20260906065420 0 0.0 0.0 0.00 0.00 0.00 1019.8
20260906064916 0 0.0 0.0 0.00 0.00 0.00 1019.9
20260906064413 0 0.0 0.0 0.00 0.00 0.00 1020.1
20260906063912 0 0.0 0.0 0.00 0.00 0.00 1019.9
20260906063407 0 0.0 0.0 0.00 0.00 0.00 1019.9
20260906062902 0 0.0 0.0 0.00 0.00 0.00 1019.9
20260906062401 0 0.0 0.0 0.00 0.00 0.00 1019.6
20260906061857 0 0.0 0.0 0.00 0.00 0.00 1019.8
20260906061354 0 0.0 0.0 0.00 0.00 0.00 1019.6
20260906060848 0 0.0 0.0 0.00 0.00 0.00 1019.9
20260906060345 0 0.0 0.0 0.00 0.00 0.00 1019.9
20260906055841 0 0.0 0.0 0.00 0.00 0.00 1019.9
20260906055337 0 0.0 0.0 0.00 0.00 0.00 1019.5
20260906054832 0 0.0 0.0 0.00 0.00 0.00 1019.8
20260906054327 0 0.0 0.0 0.00 0.00 0.00 1019.8
20260906053823 0 0.0 0.0 0.00 0.00 0.00 1019.9
20260906053319 0 0.0 0.0 0.00 0.00 0.00 1019.6
20260906052814 0 0.0 0.0 0.00 0.00 0.00 1019.5
20260906052310 0 0.0 0.0 0.00 0.00 0.00 1019.6
20260906051807 0 0.0 0.0 0.00 0.00 0.00 1019.6
20260906051306 0 0.0 0.0 0.00 0.00 0.00 1019.8
20260906050801 0 0.0 0.0 0.00 0.00 0.00 1019.8
20260906050257 0 0.0 0.0 0.00 0.00 0.00 1020.0
20260906045755 0 0.0 0.0 0.00 0.00 0.00 1020.1
20260906045250 0 0.0 0.0 0.00 0.00 0.00 1020.0
20260906044746 0 0.0 0.0 0.00 0.00 0.00 1019.9
20260906044241 0 0.0 0.0 0.00 0.00 0.00 1019.9
20260906043737 0 0.0 0.0 0.00 0.00 0.00 1020.0
20260906043233 0 0.0 0.0 0.00 0.00 0.00 1020.0
20260906042733 0 0.0 0.0 0.00 0.00 0.00 1020.0
20260906042231 0 0.0 0.0 0.00 0.00 0.00 1020.0
20260906041727 0 0.0 0.0 0.00 0.00 0.00 1020.0
20260906041222 0 0.0 0.0 0.00 0.00 0.00 1020.0
20260906040718 0 0.0 0.0 0.00 0.00 0.00 1020.0
20260906040213 0 0.0 0.0 0.00 0.00 0.00 1020.1
20260906035709 0 0.0 0.0 0.00 0.00 0.00 1020.1
20260906035159 0 0.0 0.0 0.00 0.00 0.00 1020.2
20260906034659 0 0.0 0.0 0.00 0.00 0.00 1020.1
20260906034153 0 0.0 0.0 0.00 0.00 0.00 1020.1
20260906033649 0 0.0 0.0 0.00 0.00 0.00 1019.8
20260906033149 0 0.0 0.0 0.00 0.00 0.00 1019.5
20260906032646 0 0.0 0.0 0.00 0.00 0.00 1019.6
20260906032146 0 0.0 0.0 0.00 0.00 0.00 1019.8
20260906031641 0 0.0 0.0 0.00 0.00 0.00 1019.5
20260906031137 0 0.0 0.0 0.00 0.00 0.00 1019.9
20260906030636 0 0.0 0.0 0.00 0.00 0.00 1019.6
20260906030131 0 0.0 0.0 0.00 0.00 0.00 1019.4
20260906025630 0 0.0 0.0 0.00 0.00 0.00 1019.1
20260906025130 0 0.0 0.0 0.00 0.00 0.00 1019.0
20260906024625 0 0.0 0.0 0.00 0.00 0.00 1019.1
20260906024125 0 0.0 0.0 0.00 0.00 0.00 1019.0
20260906023621 0 0.0 0.0 0.00 0.00 0.00 1019.0
20260906023120 0 0.0 0.0 0.00 0.00 0.00 1019.0
20260906022616 0 0.0 0.0 0.00 0.00 0.00 1019.0
20260906022111 0 0.0 0.0 0.00 0.00 0.00 1019.1
20260906021607 0 0.0 0.0 0.00 0.00 0.00 1018.9
20260906021106 0 0.0 0.0 0.00 0.00 0.00 1018.8
20260906020605 0 0.0 0.0 0.00 0.00 0.00 1018.7
20260906020100 0 0.0 0.0 0.00 0.00 0.00 1018.7
20260906015600 0 0.0 0.0 0.00 0.00 0.00 1018.5
20260906015059 0 0.0 0.0 0.00 0.00 0.00 1018.0
20260906014554 0 0.0 0.0 0.00 0.00 0.00 1018.2
20260906014050 0 0.0 0.0 0.00 0.00 0.00 1018.3
20260906013545 0 0.0 0.0 0.00 0.00 0.00 1018.0
20260906013041 0 0.0 0.0 0.00 0.00 0.00 1018.2
20260906012535 0 0.0 0.0 0.00 0.00 0.00 1018.0
20260906012035 0 0.0 0.0 0.00 0.00 0.00 1018.0
20260906011531 0 0.0 0.0 0.00 0.00 0.00 1018.2
20260906011031 0 0.0 0.0 0.00 0.00 0.00 1018.2
20260906010526 0 0.0 0.0 0.00 0.00 0.00 1018.0
20260906010023 0 0.0 0.0 0.00 0.00 0.00 1018.2
20260906005521 0 0.0 0.0 0.00 0.00 0.00 1018.4
20260906005020 0 0.0 0.0 0.00 0.00 0.00 1018.3
20260906004515 0 0.0 0.0 0.00 0.00 0.00 1018.3
20260906004010 0 0.0 0.0 0.00 0.00 0.00 1018.4
20260906003505 0 0.0 0.0 0.00 0.00 0.00 1018.3
20260906003001 0 0.0 0.0 0.00 0.00 0.00 1018.4
20260906002500 0 0.0 0.0 0.00 0.00 0.00 1018.3
20260906001955 0 0.0 0.0 0.00 0.00 0.00 1018.2
20260906001451 0 0.0 0.0 0.00 0.00 0.00 1018.3
20260906000945 0 0.0 0.0 0.00 0.00 0.00 1018.2
20260906000441 0 0.0 0.0 0.00 0.00 0.00 1018.3
20260905235936 0 0.0 0.0 0.00 0.00 0.00 1018.3
20260905235436 0 0.0 0.0 0.00 0.00 0.00 1018.2
20260905234931 0 0.0 0.0 0.00 0.00 0.00 1018.0
20260905234426 0 0.0 0.0 0.00 0.00 0.00 1018.0
20260905233920 0 0.0 0.0 0.00 0.00 0.00 1018.0
20260905233416 0 0.0 0.0 0.00 0.00 0.00 1018.2
20260905232915 0 0.0 0.0 0.00 0.00 0.00 1018.0
20260905232411 0 0.0 0.0 0.00 0.00 0.00 1018.0
20260905231906 0 0.0 0.0 0.00 0.00 0.00 1018.0
20260905231402 0 0.0 0.0 0.00 0.00 0.00 1018.0
20260905230853 0 0.0 0.0 0.00 0.00 0.00 1017.8
20260905230350 0 0.0 0.0 0.00 0.00 0.00 1018.2
20260905225849 0 0.0 0.0 0.00 0.00 0.00 1018.0
20260905225344 0 0.0 0.0 0.00 0.00 0.00 1018.2
20260905224839 0 0.0 0.0 0.00 0.00 0.00 1018.3
20260905224335 0 0.0 0.0 0.00 0.00 0.00 1018.3
20260905223829 0 0.0 0.0 0.00 0.00 0.00 1018.4
20260905223327 0 0.0 0.0 0.00 0.00 0.00 1018.4
20260905222822 0 0.0 0.0 0.00 0.00 0.00 1018.3
20260905222321 79 0 0.0 0.0 0.00 0.00 0.00 37 1018.5
20260905221817 79 0 0.0 0.0 0.00 0.00 0.00 37 1018.5
20260905221314 79 0 0.0 0.0 0.00 0.00 0.00 37 1018.5
20260905220809 79 0 0.0 0.0 0.00 0.00 0.00 37 1018.4
20260905220306 79 0 0.0 0.0 0.00 0.00 0.00 37 1018.5
20260905215804 79 0 0.0 0.0 0.00 0.00 0.00 37 1018.4
20260905215300 79 0 0.0 0.0 0.00 0.00 0.00 37 1018.7
20260905214756 79 0 0.0 0.0 0.00 0.00 0.00 37 1018.3
20260905214252 79 0 0.0 0.0 0.00 0.00 0.00 37 1018.4
20260905213747 79 0 0.0 0.0 0.00 0.00 0.00 37 1018.5
20260905213243 79 0 0.0 0.0 0.00 0.00 0.00 37 1018.4
20260905212738 79 0 0.0 0.0 0.00 0.00 0.00 37 1018.7